TimeCST,TemperatureF,Dew PointF,Humidity,Sea Level PressureIn,VisibilityMPH,Wind Direction,Wind SpeedMPH,Gust SpeedMPH,PrecipitationIn,Events,Conditions,WindDirDegrees,DateUTC
12:15 AM,35.1,27.3,73,30.17,10.0,WNW,8.1,-,N/A,,Clear,300,2012-11-20 06:15:00
12:35 AM,34.0,26.4,74,30.17,10.0,NW,10.4,-,N/A,,Clear,320,2012-11-20 06:35:00
12:55 AM,34.7,27.1,74,30.17,10.0,NNW,8.1,-,N/A,,Clear,330,2012-11-20 06:55:00
1:15 AM,32.2,24.6,74,30.18,10.0,West,5.8,-,N/A,,Clear,270,2012-11-20 07:15:00
1:35 AM,33.3,26.6,77,30.17,10.0,NW,6.9,-,N/A,,Clear,310,2012-11-20 07:35:00
1:55 AM,32.7,25.9,76,30.17,10.0,NNW,8.1,-,N/A,,Clear,340,2012-11-20 07:55:00
2:15 AM,34.5,26.2,72,30.18,10.0,NNW,8.1,-,N/A,,Clear,330,2012-11-20 08:15:00
2:35 AM,30.7,25.2,80,30.19,10.0,WSW,9.2,-,N/A,,Clear,250,2012-11-20 08:35:00
6:15 AM,28.9,23.2,79,30.20,10.0,WNW,4.6,-,N/A,,Clear,290,2012-11-20 12:15:00
6:35 AM,28.9,23.4,80,30.20,10.0,WNW,6.9,-,N/A,,Clear,290,2012-11-20 12:35:00
6:55 AM,29.3,23.5,79,30.20,10.0,West,4.6,-,N/A,,Clear,280,2012-11-20 12:55:00
7:15 AM,30.9,24.3,76,30.20,10.0,WNW,4.6,-,N/A,,Clear,300,2012-11-20 13:15:00
7:35 AM,30.7,24.1,76,30.20,10.0,WNW,3.5,-,N/A,,Clear,290,2012-11-20 13:35:00
7:55 AM,31.8,24.4,74,30.20,10.0,West,3.5,-,N/A,,Clear,270,2012-11-20 13:55:00
8:15 AM,31.3,25.5,79,30.21,10.0,West,5.8,-,N/A,,Clear,270,2012-11-20 14:15:00
8:35 AM,34.3,27.5,76,30.22,10.0,West,3.5,-,N/A,,Clear,270,2012-11-20 14:35:00
8:55 AM,37.2,28.8,71,30.23,10.0,WNW,3.5,-,N/A,,Clear,290,2012-11-20 14:55:00
9:15 AM,40.3,30.0,67,30.22,10.0,West,3.5,-,N/A,,Clear,260,2012-11-20 15:15:00
9:35 AM,43.9,31.6,62,30.22,10.0,WSW,4.6,-,N/A,,Clear,240,2012-11-20 15:35:00
9:55 AM,47.8,32.0,54,30.22,10.0,SW,5.8,-,N/A,,Clear,230,2012-11-20 15:55:00
10:15 AM,50.0,32.2,50,30.22,10.0,SW,4.6,-,N/A,,Clear,220,2012-11-20 16:15:00
10:35 AM,51.8,32.2,47,30.22,10.0,SSW,5.8,-,N/A,,Clear,210,2012-11-20 16:35:00
10:55 AM,53.8,32.0,44,30.21,10.0,SSW,8.1,-,N/A,,Clear,200,2012-11-20 16:55:00
11:15 AM,55.9,31.3,39,30.21,10.0,SSW,8.1,-,N/A,,Clear,210,2012-11-20 17:15:00
11:35 AM,57.9,30.2,35,30.20,10.0,SSW,10.4,-,N/A,,Clear,210,2012-11-20 17:35:00
11:55 AM,59.9,28.9,31,30.20,10.0,SW,10.4,-,N/A,,Clear,220,2012-11-20 17:55:00
12:15 PM,61.2,27.5,28,30.19,10.0,SSW,11.5,-,N/A,,Clear,210,2012-11-20 18:15:00
12:35 PM,62.6,27.0,26,30.18,10.0,SSW,10.4,-,N/A,,Clear,200,2012-11-20 18:35:00
12:55 PM,63.7,27.1,25,30.17,10.0,SSW,11.5,-,N/A,,Clear,210,2012-11-20 18:55:00
1:15 PM,64.6,27.3,25,30.16,10.0,South,13.8,-,N/A,,Clear,190,2012-11-20 19:15:00
1:35 PM,65.3,27.3,24,30.15,10.0,SW,13.8,-,N/A,,Clear,220,2012-11-20 19:35:00
1:55 PM,66.2,28.2,24,30.15,10.0,SW,15.0,-,N/A,,Clear,230,2012-11-20 19:55:00
2:15 PM,66.4,27.9,24,30.13,10.0,SW,16.1,-,N/A,,Clear,220,2012-11-20 20:15:00
2:35 PM,66.4,27.5,23,30.12,10.0,SW,12.7,18.4,N/A,,Clear,220,2012-11-20 20:35:00
2:55 PM,66.6,27.9,23,30.11,10.0,SSW,12.7,17.3,N/A,,Clear,200,2012-11-20 20:55:00
3:15 PM,66.7,27.9,23,30.11,10.0,SSW,12.7,-,N/A,,Clear,210,2012-11-20 21:15:00
3:35 PM,66.6,28.0,24,30.11,10.0,SSW,13.8,-,N/A,,Clear,210,2012-11-20 21:35:00
3:55 PM,66.0,28.2,24,30.11,10.0,SSW,13.8,-,N/A,,Clear,200,2012-11-20 21:55:00
4:15 PM,65.3,28.4,25,30.11,10.0,SSW,11.5,-,N/A,,Clear,200,2012-11-20 22:15:00
4:35 PM,63.9,28.8,27,30.10,10.0,SSW,10.4,-,N/A,,Clear,200,2012-11-20 22:35:00
4:55 PM,61.0,29.5,30,30.10,10.0,SSW,8.1,-,N/A,,Clear,200,2012-11-20 22:55:00
5:15 PM,59.0,29.5,33,30.11,10.0,South,8.1,-,N/A,,Clear,190,2012-11-20 23:15:00
5:35 PM,57.6,30.0,35,30.11,10.0,South,8.1,-,N/A,,Clear,190,2012-11-20 23:35:00
5:55 PM,56.8,30.6,37,30.11,10.0,South,8.1,-,N/A,,Clear,190,2012-11-20 23:55:00
6:15 PM,56.7,30.2,37,30.11,10.0,South,9.2,-,N/A,,Clear,190,2012-11-21 00:15:00
6:55 PM,56.3,30.2,37,30.11,10.0,South,13.8,17.3,N/A,,Clear,190,2012-11-21 00:55:00
7:15 PM,55.8,30.6,38,30.11,10.0,South,11.5,-,N/A,,Clear,190,2012-11-21 01:15:00
7:35 PM,52.2,30.9,44,30.11,10.0,South,10.4,-,N/A,,Clear,190,2012-11-21 01:35:00
7:55 PM,52.5,31.5,45,30.11,10.0,South,12.7,-,N/A,,Clear,190,2012-11-21 01:55:00
8:15 PM,52.9,31.6,44,30.11,10.0,South,12.7,18.4,N/A,,Clear,190,2012-11-21 02:15:00
8:35 PM,51.1,31.6,47,30.11,10.0,South,11.5,-,N/A,,Clear,190,2012-11-21 02:35:00
8:55 PM,50.7,31.8,48,30.11,10.0,South,12.7,18.4,N/A,,Clear,190,2012-11-21 02:55:00
9:15 PM,49.5,32.0,51,30.11,10.0,SSW,11.5,-,N/A,,Clear,200,2012-11-21 03:15:00
9:35 PM,49.5,32.0,51,30.11,10.0,SSW,12.7,-,N/A,,Clear,200,2012-11-21 03:35:00
9:55 PM,49.6,32.2,51,30.11,10.0,South,13.8,18.4,N/A,,Clear,190,2012-11-21 03:55:00
10:15 PM,48.7,32.2,53,30.11,10.0,SSW,15.0,20.7,N/A,,Clear,200,2012-11-21 04:15:00
10:35 PM,48.2,32.4,54,30.10,10.0,SSW,15.0,-,N/A,,Clear,200,2012-11-21 04:35:00
10:55 PM,47.3,32.4,56,30.10,10.0,SSW,11.5,-,N/A,,Clear,200,2012-11-21 04:55:00
11:15 PM,46.9,32.5,57,30.09,10.0,SSW,12.7,-,N/A,,Clear,200,2012-11-21 05:15:00
11:35 PM,48.2,32.9,55,30.09,10.0,SSW,13.8,-,N/A,,Clear,200,2012-11-21 05:35:00
11:55 PM,47.5,32.9,57,30.09,10.0,SSW,16.1,-,N/A,,Clear,200,2012-11-21 05:55:00